When you browse on this site, cookies collect data to enhance your experience and personalize the content and advertising you see.
Visit our Privacy Policy to learn more. By continuing to use the site, you agree to this use of cookies and data.
  • In Latvia
  • List of Countries
  • For 7 days
  • Water Temperature
  • Weather Map
  • Weather Widgets
  • user-avatar
    Login

    Hourly Weather Kolbovo

    Today, 25 August, Sunday

    Time Temperature Precipitation Wind Pressure Humidity
    00:00 +16°C° 0 mm 2 mps 751 mmHg 74%
    01:00 +16°C° 0 mm 2 mps 751 mmHg 77%
    02:00 +16°C° 0 mm 2 mps 751 mmHg 81%
    03:00 +14°C° 0 mm 3 mps 752 mmHg 84%
    04:00 +14°C° 0 mm 3 mps 752 mmHg 88%
    05:00 +14°C° 0 mm 3 mps 752 mmHg 91%
    06:00 +13°C° 0 mm 3 mps 752 mmHg 94%
    07:00 +16°C° 0 mm 3 mps 752 mmHg 88%
    08:00 +17°C° 0 mm 3 mps 752 mmHg 82%
    09:00 +18°C° 0 mm 4 mps 753 mmHg 76%
    10:00 +19°C° 0 mm 4 mps 753 mmHg 70%
    11:00 +20°C° 0 mm 4 mps 753 mmHg 65%
    12:00 +21°C° 0 mm 4 mps 753 mmHg 60%
    13:00 +21°C° 0 mm 4 mps 753 mmHg 59%
    14:00 +21°C° 0 mm 4 mps 753 mmHg 58%
    15:00 +22°C° 0 mm 4 mps 753 mmHg 58%
    16:00 +21°C° 0 mm 4 mps 753 mmHg 61%
    17:00 +20°C° 0 mm 3 mps 753 mmHg 65%
    18:00 +20°C° 0 mm 3 mps 753 mmHg 69%
    19:00 +18°C° 0 mm 3 mps 754 mmHg 73%
    20:00 +17°C° 0 mm 3 mps 754 mmHg 77%
    21:00 +16°C° 0 mm 2 mps 754 mmHg 81%
    22:00 +15°C° 0 mm 2 mps 755 mmHg 84%
    23:00 +14°C° 0 mm 2 mps 755 mmHg 87%

    Tomorrow, 26 August, Monday

    Time Temperature Precipitation Wind Pressure Humidity
    00:00 +14°C° 0 mm 2 mps 755 mmHg 90%
    01:00 +13°C° 0 mm 2 mps 755 mmHg 90%
    02:00 +13°C° 0 mm 2 mps 755 mmHg 91%
    03:00 +12°C° 0 mm 1 mps 756 mmHg 92%
    04:00 +12°C° 0 mm 1 mps 756 mmHg 92%
    05:00 +12°C° 0 mm 1 mps 755 mmHg 92%
    06:00 +12°C° 0 mm 1 mps 755 mmHg 92%
    07:00 +13°C° 0 mm 1 mps 756 mmHg 85%
    08:00 +15°C° 0 mm 1 mps 756 mmHg 78%
    09:00 +16°C° 0 mm 1 mps 756 mmHg 72%
    10:00 +19°C° 0 mm 1 mps 756 mmHg 66%
    11:00 +20°C° 0 mm 1 mps 756 mmHg 61%
    12:00 +21°C° 0 mm 1 mps 755 mmHg 56%
    13:00 +22°C° 0 mm 1 mps 755 mmHg 53%
    14:00 +22°C° 0 mm 1 mps 755 mmHg 50%
    15:00 +23°C° 0 mm 1 mps 755 mmHg 48%
    16:00 +22°C° 0 mm 1 mps 754 mmHg 51%
    17:00 +22°C° 0 mm 1 mps 754 mmHg 55%
    18:00 +22°C° 0 mm 1 mps 753 mmHg 59%
    19:00 +21°C° 0 mm 1 mps 753 mmHg 62%
    20:00 +19°C° 0 mm 1 mps 753 mmHg 65%
    21:00 +18°C° 0 mm 1 mps 753 mmHg 68%
    22:00 +16°C° 0 mm 2 mps 753 mmHg 71%
    23:00 +16°C° 0 mm 2 mps 752 mmHg 73%

    Day after tomorrow, 27 August, Tuesday

    Time Temperature Precipitation Wind Pressure Humidity
    00:00 +15°C° 0 mm 2 mps 752 mmHg 76%
    01:00 +14°C° 0 mm 3 mps 752 mmHg 77%
    02:00 +14°C° 0 mm 3 mps 751 mmHg 79%
    03:00 +14°C° 0 mm 3 mps 751 mmHg 80%
    04:00 +13°C° 0 mm 3 mps 750 mmHg 81%
    05:00 +13°C° 0 mm 4 mps 750 mmHg 82%
    06:00 +13°C° 0 mm 4 mps 750 mmHg 83%
    07:00 +15°C° 0 mm 4 mps 749 mmHg 80%
    08:00 +16°C° 0 mm 5 mps 749 mmHg 78%
    09:00 +17°C° 0 mm 5 mps 749 mmHg 76%
    10:00 +19°C° 0.4 mm 6 mps 748 mmHg 74%
    11:00 +20°C° 0.4 mm 6 mps 748 mmHg 72%
    12:00 +21°C° 0.4 mm 6 mps 748 mmHg 70%
    13:00 +22°C° 0.2 mm 6 mps 747 mmHg 68%
    14:00 +22°C° 0.2 mm 6 mps 747 mmHg 66%
    15:00 +22°C° 0.2 mm 6 mps 747 mmHg 64%
    16:00 +21°C° 0 mm 6 mps 747 mmHg 64%
    17:00 +21°C° 0 mm 5 mps 747 mmHg 64%
    18:00 +20°C° 0 mm 5 mps 747 mmHg 64%
    19:00 +19°C° 0 mm 4 mps 747 mmHg 67%
    20:00 +17°C° 0 mm 4 mps 747 mmHg 69%
    21:00 +15°C° 0 mm 4 mps 748 mmHg 72%
    22:00 +14°C° 0 mm 4 mps 748 mmHg 74%
    23:00 +14°C° 0 mm 4 mps 748 mmHg 77%

    28 August, Wednesday

    Time Temperature Precipitation Wind Pressure Humidity
    00:00 +13°C° 0 mm 4 mps 748 mmHg 80%
    01:00 +12°C° 0 mm 4 mps 749 mmHg 82%
    02:00 +11°C° 0 mm 4 mps 749 mmHg 84%
    03:00 +11°C° 0 mm 4 mps 749 mmHg 87%
    04:00 +10°C° 0 mm 4 mps 749 mmHg 86%
    05:00 +8°C° 0 mm 4 mps 749 mmHg 86%
    06:00 +8°C° 0 mm 5 mps 750 mmHg 86%
    07:00 +8°C° 0 mm 5 mps 750 mmHg 79%
    08:00 +9°C° 0 mm 6 mps 750 mmHg 72%
    09:00 +10°C° 0 mm 6 mps 750 mmHg 65%
    10:00 +10°C° 0 mm 6 mps 750 mmHg 61%
    11:00 +11°C° 0 mm 6 mps 750 mmHg 58%
    12:00 +13°C° 0 mm 6 mps 751 mmHg 55%
    13:00 +14°C° 0 mm 6 mps 751 mmHg 54%
    14:00 +14°C° 0 mm 6 mps 751 mmHg 54%
    15:00 +14°C° 0 mm 6 mps 751 mmHg 54%
    16:00 +13°C° 0 mm 6 mps 751 mmHg 57%
    17:00 +13°C° 0 mm 5 mps 751 mmHg 60%
    18:00 +12°C° 0 mm 5 mps 751 mmHg 64%
    19:00 +11°C° 0 mm 4 mps 751 mmHg 68%
    20:00 +10°C° 0 mm 3 mps 752 mmHg 72%
    21:00 +9°C° 0 mm 3 mps 752 mmHg 76%
    22:00 +8°C° 0 mm 3 mps 752 mmHg 78%
    23:00 +8°C° 0 mm 3 mps 752 mmHg 79%

    29 August, Thursday

    Time Temperature Precipitation Wind Pressure Humidity
    00:00 +8°C° 0 mm 3 mps 753 mmHg 80%
    01:00 +8°C° 0 mm 3 mps 753 mmHg 79%
    02:00 +8°C° 0 mm 3 mps 753 mmHg 78%
    03:00 +8°C° 0 mm 3 mps 753 mmHg 77%
    04:00 +7°C° 0 mm 3 mps 753 mmHg 81%
    05:00 +7°C° 0 mm 3 mps 753 mmHg 85%
    06:00 +5°C° 0 mm 3 mps 753 mmHg 89%
    07:00 +6°C° 0 mm 4 mps 753 mmHg 80%
    08:00 +8°C° 0 mm 5 mps 754 mmHg 72%
    09:00 +9°C° 0 mm 6 mps 754 mmHg 63%
    10:00 +10°C° 0 mm 5 mps 754 mmHg 60%
    11:00 +12°C° 0 mm 5 mps 754 mmHg 58%
    12:00 +13°C° 0 mm 5 mps 754 mmHg 55%
    13:00 +13°C° 0 mm 5 mps 753 mmHg 54%
    14:00 +14°C° 0 mm 5 mps 753 mmHg 54%
    15:00 +14°C° 0 mm 5 mps 753 mmHg 53%
    16:00 +14°C° 0 mm 4 mps 753 mmHg 56%
    17:00 +14°C° 0 mm 4 mps 753 mmHg 59%
    18:00 +13°C° 0 mm 3 mps 753 mmHg 62%
    19:00 +12°C° 0 mm 3 mps 753 mmHg 66%
    20:00 +10°C° 0 mm 3 mps 753 mmHg 70%
    21:00 +9°C° 0 mm 3 mps 753 mmHg 74%
    22:00 +8°C° 0 mm 3 mps 754 mmHg 76%
    23:00 +8°C° 0 mm 2 mps 754 mmHg 78%

    30 August, Friday

    Time Temperature Precipitation Wind Pressure Humidity
    00:00 +7°C° 0 mm 2 mps 754 mmHg 80%
    01:00 +7°C° 0 mm 2 mps 754 mmHg 82%
    02:00 +6°C° 0 mm 2 mps 754 mmHg 83%
    03:00 +6°C° 0 mm 2 mps 754 mmHg 85%
    04:00 +5°C° 0 mm 2 mps 754 mmHg 86%
    05:00 +5°C° 0 mm 2 mps 754 mmHg 87%
    06:00 +5°C° 0 mm 2 mps 754 mmHg 88%
    07:00 +7°C° 0 mm 2 mps 754 mmHg 81%
    08:00 +9°C° 0 mm 3 mps 754 mmHg 73%
    09:00 +10°C° 0 mm 3 mps 754 mmHg 66%
    10:00 +12°C° 0 mm 3 mps 754 mmHg 60%
    11:00 +13°C° 0 mm 3 mps 754 mmHg 55%
    12:00 +14°C° 0 mm 3 mps 754 mmHg 50%
    13:00 +16°C° 0 mm 3 mps 753 mmHg 48%
    14:00 +16°C° 0 mm 3 mps 753 mmHg 47%
    15:00 +17°C° 0 mm 3 mps 752 mmHg 45%
    16:00 +17°C° 0 mm 3 mps 752 mmHg 51%
    17:00 +16°C° 0 mm 3 mps 752 mmHg 56%
    18:00 +16°C° 0 mm 3 mps 751 mmHg 61%
    19:00 +14°C° 0 mm 3 mps 751 mmHg 63%
    20:00 +13°C° 0 mm 3 mps 751 mmHg 64%
    21:00 +12°C° 0 mm 3 mps 751 mmHg 65%
    22:00 +12°C° 0 mm 4 mps 751 mmHg 70%
    23:00 +13°C° 0 mm 4 mps 751 mmHg 74%
    Show more